Weather History for Durango, Dgo., Mexico

Change the Weather History Date:

Sunday, February 9, 2014

  Actual Average Record
Temperature  
Mean Temperature 60 °F -  
Max Temperature 84 °F 73 °F - ()
Min Temperature 36 °F 37 °F - ()
Degree Days  
Heating Degree Days 5    
Growing Degree Days 10 (Base 50)    
Moisture  
Dew Point 23 °F    
Average Humidity 25    
Maximum Humidity 55    
Minimum Humidity 9    
Precipitation  
Precipitation 0.00 in - - ()
Sea Level Pressure  
Sea Level Pressure 30.09 in    
Wind  
Wind Speed 2 mph ()    
Max Wind Speed 9 mph    
Max Gust Speed -    
Visibility 11.6 miles    
Events      
T = Trace of Precipitation, MM = Missing Value Source: Averaged Metar Reports

Daily Weather History Graph

Daily Weather History Graph

Search for Another Location

Airport:

Trip Planner

Search our weather history database for the weather conditions in past years. The results will help you decide how hot, cold, wet, or windy it might be!

Date:

Astronomy

Feb. 09, 2014 Rise Set
Actual Time 7:35 AM CST 6:49 PM CST
Civil Twilight 7:11 AM CST 7:13 PM CST
Nautical Twilight 6:45 AM CST 7:39 PM CST
Astronomical Twilight 6:18 AM CST 8:06 PM CST
Moon 2:42 PM CST (2/9) 3:31 AM CST (2/9)
Length of Visible Light 12h 01m
Length of Day
11h 14m
Waxing Gibbous, 77% of the Moon is Illuminated
Feb 9
Waxing Gibbous
Feb 14
Full
Feb 22
Last Quarter
Mar 1
New
Mar 8
First Quarter

Hourly Weather History & Observations

Time (CST) Temp. Windchill Dew Point Humidity Pressure Visibility Wind Dir Wind Speed Gust Speed Precip Events Conditions
2:50 AM 47 °F - 23 °F 26% 29.96 in 6 mi Calm Calm - -  
4:52 AM 33.8 °F - 12.2 °F 41% 30.29 in 10.0 mi North 2.3 mph - N/A   Clear
5:50 AM 40 °F - 24 °F 40% 30.05 in 6 mi Calm Calm - -  
6:49 AM 30.2 °F 25.4 °F 15.8 °F 55% 30.32 in 10.0 mi WNW 4.6 mph - N/A   Clear
7:44 AM 28.4 °F 24.6 °F 12.2 °F 51% 30.33 in 12.0 mi ESE 3.5 mph - N/A   Clear
8:50 AM 41 °F - 25 °F 41% 30.19 in 12 mi Calm Calm - -  
8:50 AM 42.8 °F - 15.8 °F 34% 30.19 in 14.0 mi Calm Calm - N/A   Clear
9:42 AM 51.8 °F - 17.6 °F 26% 30.35 in 14.0 mi SSW 4.6 mph - N/A   Clear
10:44 AM 60.8 °F - 17.6 °F 19% 30.34 in 14.0 mi Calm Calm - N/A   Clear
11:45 AM 66.2 °F - 14.0 °F 13% 29.89 in 14.0 mi North 3.5 mph - N/A   Clear
11:53 AM 69 °F - 35 °F 18% 30.15 in 31 mi Calm Calm - -  
12:42 PM 71.6 °F - 51.8 °F 50% 30.27 in 14.0 mi Calm Calm - N/A   Clear
1:45 PM 73.4 °F - 15.8 °F 11% 30.22 in 14.0 mi South 5.8 mph - N/A   Clear
2:51 PM 62 °F - 39 °F 30% 29.94 in 31 mi SSE 2.2 mph - -  
2:52 PM 77.0 °F - 15.8 °F 10% 29.73 in 14.0 mi Calm Calm - N/A   Clear
3:45 PM 78.8 °F - 15.8 °F 9% 30.14 in 14.0 mi South 5.8 mph - N/A   Clear
4:43 PM 78.8 °F - 15.8 °F 9% 30.12 in 14.0 mi South 6.9 mph - N/A   Clear
5:50 PM 78.8 °F - 14.0 °F 9% 29.85 in 14.0 mi SE 6.9 mph - N/A   Clear
5:59 PM 81 °F - 37 °F 12% 29.75 in 31 mi SSE 4.5 mph - -  
6:40 PM 75.2 °F - 17.6 °F 11% 30.12 in 14.0 mi SSE 6.9 mph - N/A   Clear
7:43 PM 66.2 °F - 21.2 °F 18% 30.15 in 12.0 mi South 9.2 mph - N/A   Clear
8:48 PM 60.8 °F - 19.4 °F 20% 29.92 in 10.0 mi SSW 8.1 mph - N/A   Clear
8:59 PM 68 °F - 36 °F 19% 29.73 in 6 mi WSW 2.2 mph - -  
11:59 PM 62 °F - 32 °F 21%  in 6 mi WSW 2.2 mph - -